Location: Township of Marena
(38.1747°N, 99.6798°W)
Time: 02:54:42
(UTC+00:00)

ARGOS - Pass Details

Date: 26 October 2020
Orbit: 820 x 835 km, 98.4° (Epoch: 27 November)

Event Time Altitude Azimuth Distance (km) Brightness Sun altitude
Exits shadow 02:18:05 68° 260° (W) 897 3.4 -30.3°
Drops below altitude 10° 02:23:29 10° 342° (NNW) 2,452 5.9 -31.4°
Sets 02:25:53 0° 345° (NNW) 3,391 6.6 -31.8°
